Погода в Липецке

Погода в Липецке : погода сейчас, прогноз погоды и архив. Всё, что Вы хотите узнать о погоде в Липецке!

Хотите узнать прогноз погоды в Липецке? Тогда Вам сюда: Погода в Липецке

Поиск расширенной информации на нашем сайте:

Другие новости

Новости СМИ2

Главная страница сайта

Новости сайта

03.07.2017

Напоминаем, что на нашем специализированном сайте Метеоцентр.Азия вы можете получить высокодетализированные автоматические прогнозы погоды по пунктам России, СНГ и мира в авиационном формате (включающие направление и скорость ветра, видимость, явления погоды, количество и форму облачности, нижнюю и верхнюю границу облачности).


Погода в Липецке - сегодня

Время (UTC), дата Ветер
(°,м/с) 
Видим.   Явления Облачность Т
(°С)
Тd
(°С)
f(%) Тe
(°С)
Pmin
(гПа)
dP
(гПа)
Po
(мм)
O2
(г/м3)
Тmin Tmax R s Состояние
почвы
06 15.08.17 010 (С) 10 км  гроза без осадков  9/4 1000 м кучево-дожд., средняя, верхняя 
[Cb calv|Ac trans|Ci fib]
+21.4 +15.9 71 +32  1019.5  1.3  749  277           
09 15.08.17 020 (С) 10 км  {гроза}  10/4 1000 м кучево-дожд., средняя 
[Cb calv|Ac und]
+23.4 +16.9 67 +36  1020.2  0.8  750  275           
12 15.08.17 020 (С) 10 км  {гроза}  8/4 1000 м средняя, верхняя 
[Cu med, cong|Ac trans|Ci fib]
+24.8 +16.7 61 +37  1020.3  0.2  750  273           
15 15.08.17 020 (С) 7{10}  10 км    6/3 1000 м средняя 
[Cu hum|Ac trans]
+25.2 +16.4 58 +36  1020.8  0.5  750  273    +26.7       
18 15.08.17 020 (С) 3{10}  10 км    4/0 средняя 
[Ac trans]
+20.6 +16.1 75 +31  1022.3  1.3  751  278           
21 15.08.17 030 (СВ) 10 км    4/0 средняя 
[Ac trans]
+17.1 +15.4 90 +27  1023.6  0.9  752  282           
00 16.08.17 020 (С) 10 км    3/0 средняя 
[Ac trans]
+15.6 +14.2 91 +23  1023.9  0.1  752  284           
03 16.08.17 020 (С) 8000 м  дымка  3/0 средняя 
[Ac trans]
+15.3 +15 98 +24  1024.3  0.4  752  284  +15         
06 16.08.17 040 (СВ) 10 км    4/3 300 м средняя 
[St|Ac trans]
+19.3 +16.3 83 +30  1024.4  0.4  753  280           
09 16.08.17 060 (СВ) 10 км    4/3 600 м средняя 
[Cu hum|Ac trans]
+24.4 +16.3 61 +35  1023.4  -0.6  752  275           
12 16.08.17 080 (В) 10 км    3/3 1500 м средняя 
[Cu hum|Ac trans]
+24.7 +14.9 54 +33  1023.7  0.3  752  275           
15 16.08.17 060 (СВ) 10 км    1/0 средняя 
[Ac trans]
+24.6 +15.8 58 +35  1023.6  -0.1  752  275    +26       
18 16.08.17 050 (СВ) 10 км    4/0 средняя 
[Ac trans]
+19.4 +16.2 82 +31  1024.3  0.3  753  280           
21 16.08.17 060 (СВ) 10 км    4/0 средняя 
[Ac trans]
+16.6 +15.2 91 +26  1024.8  0.3  753  283           
00 17.08.17 040 (СВ) 10 км    4/0 средняя 
[Ac trans]
+15.3 +14.2 93 +23  1024.9  753  284           
03 17.08.17 050 (СВ) 8000 м  дымка  4/0 средняя 
[Ac trans]
+14.8 +14.3 97 +22  1025.4  0.5  753  285  +14.3         
06 17.08.17 080 (В) 10 км    1/0 средняя 
[Ac trans]
+20.1 +15.6 75 +30  1025.3  0.3  753  279           
09 17.08.17 060 (СВ) 10 км    3/3 1500 м 
[Cu hum]
+26.3 +11.4 39 +29  1024.5  -0.4  753  275           
12 17.08.17 070 (В) 10 км    5/5 1500 м 
[Cu med, cong]
+26.6 +11.9 40 +30  1023.5  -1  752  274           
15 17.08.17 060 (СВ) 10 км    4/4 1500 м 
[Cu med, cong]
+26.4 +12.2 41 +31  1022.9  -0.6  752  274    +28       
18 17.08.17 040 (СВ) 10 км    ясно 
+19.6 +14.7 73 +28  1024  0.7  752  280           
21 17.08.17 050 (СВ) 10 км    ясно 
+16.9 +12.9 77 +22  1024.6  0.4  753  283           
00 18.08.17 050 (СВ) 10 км    ясно 
+14.7 +11.5 81 +18  1024.6  -0.2  753  286           
03 18.08.17 030 (СВ) 10 км    ясно 
+13.5 +11.9 90 +18  1025.1  0.4  753  287  +12.4         
06 18.08.17 050 (СВ) 10 км    ясно 
+20.5 +13.7 65 +27  1024.9  0.3  753  280           
Время (UTC), дата Ветер
(°,м/с) 
Видим.   Явления Облачность Т
(°С)
Тd
(°С)
f(%) Тe
(°С)
Pmin
(гПа)
dP
(гПа)
Po
(мм)
O2
(г/м3)
Тmin Tmax R s Состояние
почвы

Для получения пояснительной информации подведите курсор к названию столбца.

ПОГОДА в Липецке - архив

Всё, что Вы хотите узнать о погоде в Липецке - удобно и подробно!

Выберите нужную дату (начиная с 1 января 2015* года) и нажмите кнопку "Найти".
Будут отображены архивные сводки погоды по пункту Липецк, начиная с указанной даты.


Отображать данные в формате CSV (для использования в таблицах Excel)


Внимание! Наш архив погоды предназначен исключительно для личного некоммерческого использования в познавательных целях. Если Вам необходимы официальные справки о состоянии погоды (для производственных, юридических, коммерческих и т.п. целей), обращайтесь в органы Росгидромета.

*Примечание: данная дата относится к архиву по метеостанциям СССР (Россия, СНГ, Балтия).
Архив по метеостанциям Зарубежной Европы и Азии (кроме Китая) хранится 10 дней, по другим регионам земного шара (Китай, Африка, Америка, Австралия, Океания) - 1 день.

Липецк - район местоположения метеостанции


Название, широта, долгота, высота метеостанции:
Липецк 52.7°ш. 39.5°д. 177 м над ур. моря [Российская Федерация]

Дополнительная информация

В oтличие oт бoльшинства пoгoдных сайтoв мы публикуем пoдрoбную метеoинфoрмацию в детальнoм прoфессиoнальнoм фoрмате.

Характеристики температуры и влажнoсти вoздуха измеряются на высoте 2 м в тени вдали oт зданий и деревьев.
Скoрoсть ветра измеряется на высoте 10 м (на урoвне рoста челoвека скoрoсть ветра ниже в 1.5-2 раза). Если метеoстанция нахoдится в гoрoде или в лесу, тo скoрoсть ветра занижена на 2-4 м/с пo сравнению с oткрытым местoм. Скoрoсть ветра над акватoриями крупных рек и oзёр, а также на вершинах хoлмoв на 2-5 м/с выше, чем в oбычных услoвиях.
Атмoсфернoе давление в разных тoчках местнoсти мoжет значительнo oтличаться oт давления на метеoстанции, в зависимoсти oт услoвий рельефа (при пoдъёме на 10 м давление пoнижается примернo на 1 мм рт.ст.).